| time (UTC) | temp F | wind direction | speed MPH | gust MPH | rain 1hr in | rain 24hr in | rain mn in | humidity % | barometer mb |
| 20260906174003 | 69 | 84 | 0.0 | 1.0 | 0.02 | 0.14 | 0.14 | 90 | 1026.0 |
| 20260906173503 | 69 | 84 | 0.0 | 1.0 | 0.02 | 0.14 | 0.14 | 91 | 1026.0 |
| 20260906173003 | 68 | 78 | 0.0 | 0.0 | 0.02 | 0.14 | 0.14 | 90 | 1026.2 |
| 20260906172503 | 68 | 65 | 0.0 | 1.0 | 0.03 | 0.14 | 0.14 | 90 | 1026.2 |
| 20260906172003 | 69 | 49 | 0.0 | 3.0 | 0.03 | 0.14 | 0.14 | 91 | 1026.1 |
| 20260906171504 | 68 | 49 | 2.0 | 3.0 | 0.03 | 0.14 | 0.14 | 90 | 1026.1 |
| 20260906171003 | 68 | 47 | 3.0 | 6.0 | 0.03 | 0.13 | 0.13 | 90 | 1026.0 |
| 20260906170503 | 68 | 38 | 2.0 | 3.0 | 0.03 | 0.13 | 0.13 | 89 | 1026.0 |
| 20260906170004 | 68 | 31 | 2.0 | 6.0 | 0.03 | 0.13 | 0.13 | 89 | 1026.0 |
| 20260906165504 | 68 | 38 | 3.0 | 8.0 | 0.03 | 0.12 | 0.12 | 88 | 1026.0 |
| 20260906165004 | 68 | 17 | 3.0 | 8.0 | 0.03 | 0.12 | 0.12 | 88 | 1025.9 |
| 20260906164503 | 68 | 6 | 4.0 | 8.0 | 0.03 | 0.12 | 0.12 | 88 | 1025.9 |
| 20260906164004 | 68 | 1 | 5.0 | 8.0 | 0.03 | 0.12 | 0.12 | 89 | 1025.9 |
| 20260906163003 | 68 | 13 | 5.0 | 7.0 | 0.03 | 0.12 | 0.12 | 89 | 1025.9 |
| 20260906161503 | 68 | 352 | 5.0 | 9.0 | 0.02 | 0.11 | 0.11 | 89 | 1025.8 |
| 20260906161003 | 68 | 0 | 6.0 | 12.0 | 0.01 | 0.10 | 0.10 | 88 | 1025.6 |
| 20260906160503 | 69 | 11 | 7.0 | 10.0 | 0.02 | 0.10 | 0.10 | 88 | 1025.7 |
| 20260906160004 | 69 | 4 | 6.0 | 12.0 | 0.02 | 0.10 | 0.10 | 87 | 1025.5 |
| 20260906155004 | 69 | 358 | 7.0 | 12.0 | 0.01 | 0.09 | 0.09 | 85 | 1025.6 |
| 20260906154503 | 69 | 344 | 7.0 | 12.0 | 0.01 | 0.09 | 0.09 | 84 | 1025.4 |
| 20260906154003 | 70 | 327 | 7.0 | 12.0 | 0.01 | 0.09 | 0.09 | 83 | 1025.4 |
| 20260906153503 | 70 | 331 | 5.0 | 12.0 | 0.01 | 0.09 | 0.09 | 82 | 1025.3 |
| 20260906153004 | 70 | 350 | 4.0 | 9.0 | 0.02 | 0.09 | 0.09 | 82 | 1025.4 |
| 20260906152503 | 70 | 0 | 3.0 | 5.0 | 0.02 | 0.09 | 0.09 | 84 | 1025.3 |
| 20260906152003 | 69 | 329 | 3.0 | 3.0 | 0.02 | 0.09 | 0.09 | 83 | 1025.2 |
| 20260906151504 | 69 | 323 | 2.0 | 3.0 | 0.02 | 0.09 | 0.09 | 84 | 1025.1 |
| 20260906151003 | 69 | 280 | 1.0 | 3.0 | 0.02 | 0.09 | 0.09 | 84 | 1025.0 |
| 20260906150503 | 69 | 271 | 1.0 | 3.0 | 0.01 | 0.08 | 0.08 | 84 | 1024.9 |
| 20260906145504 | 69 | 275 | 2.0 | 3.0 | 0.01 | 0.08 | 0.08 | 83 | 1024.7 |
| 20260906145006 | 69 | 274 | 2.0 | 3.0 | 0.01 | 0.08 | 0.08 | 83 | 1024.6 |
| 20260906144503 | 69 | 271 | 2.0 | 3.0 | 0.01 | 0.08 | 0.08 | 83 | 1024.5 |
| 20260906144004 | 69 | 260 | 0.0 | 1.0 | 0.01 | 0.08 | 0.08 | 84 | 1024.4 |
| 20260906143503 | 69 | 260 | 0.0 | 2.0 | 0.01 | 0.08 | 0.08 | 83 | 1024.3 |
| 20260906143004 | 69 | 260 | 2.0 | 3.0 | 0.00 | 0.07 | 0.07 | 83 | 1024.1 |
| 20260906142503 | 69 | 261 | 0.0 | 2.0 | 0.00 | 0.07 | 0.07 | 82 | 1023.9 |
| 20260906142004 | 69 | 261 | 1.0 | 3.0 | 0.00 | 0.07 | 0.07 | 82 | 1024.0 |
| 20260906141503 | 69 | 254 | 0.0 | 0.0 | 0.00 | 0.07 | 0.07 | 83 | 1023.8 |
| 20260906141003 | 69 | 246 | 1.0 | 3.0 | 0.01 | 0.07 | 0.07 | 83 | 1023.8 |
| 20260906140503 | 68 | 246 | 0.0 | 0.0 | 0.01 | 0.07 | 0.07 | 83 | 1023.7 |
| 20260906140004 | 68 | 246 | 0.0 | 3.0 | 0.01 | 0.07 | 0.07 | 83 | 1023.8 |
| 20260906135503 | 68 | 245 | 0.0 | 2.0 | 0.01 | 0.07 | 0.07 | 84 | 1023.7 |
| 20260906134004 | 68 | 245 | 0.0 | 3.0 | 0.02 | 0.07 | 0.07 | 85 | 1023.8 |
| 20260906133003 | 68 | 246 | 0.0 | 1.0 | 0.02 | 0.07 | 0.07 | 82 | 1023.6 |
| 20260906132504 | 68 | 246 | 1.0 | 3.0 | 0.03 | 0.07 | 0.07 | 82 | 1023.9 |
| 20260906132003 | 68 | 244 | 2.0 | 3.0 | 0.04 | 0.07 | 0.07 | 81 | 1023.8 |
| 20260906131503 | 68 | 242 | 2.0 | 3.0 | 0.05 | 0.07 | 0.07 | 81 | 1023.6 |
| 20260906131004 | 68 | 230 | 1.0 | 3.0 | 0.05 | 0.06 | 0.06 | 82 | 1023.7 |
| 20260906130504 | 68 | 238 | 1.0 | 3.0 | 0.05 | 0.06 | 0.06 | 81 | 1023.8 |
| 20260906125503 | 68 | 253 | 2.0 | 3.0 | 0.05 | 0.06 | 0.06 | 82 | 1023.6 |
| 20260906125004 | 68 | 243 | 1.0 | 2.0 | 0.06 | 0.06 | 0.06 | 83 | 1023.5 |
| 20260906124003 | 68 | 238 | 0.0 | 2.0 | 0.05 | 0.05 | 0.05 | 82 | 1023.5 |
| 20260906123503 | 68 | 238 | 1.0 | 3.0 | 0.05 | 0.05 | 0.05 | 83 | 1023.5 |
| 20260906123004 | 68 | 239 | 1.0 | 3.0 | 0.05 | 0.05 | 0.05 | 81 | 1023.6 |
| 20260906122503 | 69 | 250 | 2.0 | 3.0 | 0.04 | 0.04 | 0.04 | 81 | 1023.6 |
| 20260906122003 | 69 | 243 | 1.0 | 5.0 | 0.03 | 0.03 | 0.03 | 80 | 1023.7 |
| 20260906121503 | 70 | 226 | 2.0 | 5.0 | 0.02 | 0.02 | 0.02 | 78 | 1023.6 |
| 20260906121003 | 70 | 245 | 2.0 | 3.0 | 0.01 | 0.01 | 0.01 | 77 | 1023.7 |
| 20260906120503 | 71 | 267 | 1.0 | 3.0 | 0.01 | 0.01 | 0.01 | 77 | 1023.7 |
| 20260906120004 | 71 | 269 | 2.0 | 3.0 | 0.01 | 0.01 | 0.01 | 75 | 1023.6 |
| 20260906115003 | 73 | 274 | 2.0 | 3.0 | 0.00 | 0.00 | 0.00 | 69 | 1023.3 |
| 20260906114503 | 73 | 248 | 1.0 | 1.0 | 0.00 | 0.00 | 0.00 | 69 | 1023.2 |
| 20260906114004 | 74 | 244 | 1.0 | 2.0 | 0.00 | 0.00 | 0.00 | 68 | 1023.1 |
| 20260906113503 | 74 | 244 | 1.0 | 3.0 | 0.00 | 0.00 | 0.00 | 65 | 1023.1 |
| 20260906113003 | 75 | 242 | 1.0 | 2.0 | 0.00 | 0.00 | 0.00 | 64 | 1023.0 |
| 20260906112504 | 75 | 241 | 0.0 | 2.0 | 0.00 | 0.00 | 0.00 | 62 | 1022.9 |
| 20260906111503 | 75 | 223 | 3.0 | 6.0 | 0.00 | 0.00 | 0.00 | 60 | 1022.5 |
| 20260906111003 | 75 | 210 | 5.0 | 7.0 | 0.00 | 0.00 | 0.00 | 60 | 1022.5 |
| 20260906110503 | 75 | 224 | 5.0 | 8.0 | 0.00 | 0.00 | 0.00 | 60 | 1022.7 |
| 20260906105503 | 75 | 225 | 4.0 | 7.0 | 0.00 | 0.00 | 0.00 | 61 | 1022.7 |
| 20260906105003 | 75 | 216 | 3.0 | 8.0 | 0.00 | 0.00 | 0.00 | 61 | 1022.9 |
| 20260906104003 | 75 | 191 | 3.0 | 6.0 | 0.00 | 0.00 | 0.00 | 61 | 1023.1 |
| 20260906103503 | 75 | 184 | 2.0 | 5.0 | 0.00 | 0.00 | 0.00 | 60 | 1023.1 |
| 20260906102503 | 76 | 179 | 3.0 | 7.0 | 0.00 | 0.00 | 0.00 | 57 | 1022.9 |
| 20260906102003 | 76 | 172 | 5.0 | 7.0 | 0.00 | 0.00 | 0.00 | 56 | 1022.9 |
| 20260906101504 | 77 | 177 | 6.0 | 9.0 | 0.00 | 0.00 | 0.00 | 55 | 1022.9 |
| 20260906101004 | 77 | 172 | 6.0 | 9.0 | 0.00 | 0.00 | 0.00 | 55 | 1023.0 |
| 20260906100003 | 78 | 164 | 4.0 | 7.0 | 0.00 | 0.00 | 0.00 | 51 | 1023.1 |
| 20260906095503 | 78 | 184 | 5.0 | 8.0 | 0.00 | 0.00 | 0.00 | 51 | 1023.1 |
| 20260906095003 | 78 | 207 | 3.0 | 6.0 | 0.00 | 0.00 | 0.00 | 51 | 1023.0 |
| 20260906094503 | 78 | 244 | 3.0 | 7.0 | 0.00 | 0.00 | 0.00 | 51 | 1023.0 |
| 20260906093504 | 77 | 227 | 0.0 | 1.0 | 0.00 | 0.00 | 0.00 | 51 | 1023.1 |
| 20260906093003 | 77 | 227 | 0.0 | 2.0 | 0.00 | 0.00 | 0.00 | 51 | 1023.0 |
| 20260906092505 | 77 | 227 | 2.0 | 5.0 | 0.00 | 0.00 | 0.00 | 51 | 1023.0 |
| 20260906092004 | 78 | 211 | 3.0 | 3.0 | 0.00 | 0.00 | 0.00 | 50 | 1023.0 |
| 20260906091503 | 78 | 214 | 2.0 | 7.0 | 0.00 | 0.00 | 0.00 | 49 | 1023.0 |
| 20260906091003 | 78 | 215 | 2.0 | 6.0 | 0.00 | 0.00 | 0.00 | 48 | 1022.9 |
| 20260906085504 | 78 | 255 | 2.0 | 3.0 | 0.00 | 0.00 | 0.00 | 47 | 1023.0 |
| 20260906085006 | 77 | 210 | 2.0 | 6.0 | 0.00 | 0.00 | 0.00 | 47 | 1023.0 |
| 20260906084503 | 77 | 261 | 0.0 | 0.0 | 0.00 | 0.00 | 0.00 | 46 | 1023.0 |
| 20260906084003 | 78 | 261 | 1.0 | 3.0 | 0.00 | 0.00 | 0.00 | 46 | 1023.1 |
| 20260906083504 | 78 | 262 | 2.0 | 8.0 | 0.00 | 0.00 | 0.00 | 47 | 1023.0 |
| 20260906083003 | 77 | 278 | 3.0 | 7.0 | 0.00 | 0.00 | 0.00 | 48 | 1023.1 |
| 20260906082503 | 77 | 231 | 3.0 | 5.0 | 0.00 | 0.00 | 0.00 | 46 | 1023.1 |
| 20260906082003 | 77 | 253 | 1.0 | 3.0 | 0.00 | 0.00 | 0.00 | 46 | 1022.9 |
| 20260906081504 | 77 | 240 | 0.0 | 3.0 | 0.00 | 0.00 | 0.00 | 46 | 1022.9 |
| 20260906080503 | 77 | 264 | 0.0 | 1.0 | 0.00 | 0.00 | 0.00 | 44 | 1022.9 |
| 20260906080004 | 77 | 265 | 0.0 | 1.0 | 0.00 | 0.00 | 0.00 | 41 | 1022.9 |
| 20260906075504 | 77 | 307 | 0.0 | 0.0 | 0.00 | 0.00 | 0.00 | 40 | 1022.9 |
| 20260906075004 | 77 | 307 | 0.0 | 0.0 | 0.00 | 0.00 | 0.00 | 40 | 1022.8 |
| 20260906074503 | 77 | 307 | 0.0 | 0.0 | 0.00 | 0.00 | 0.00 | 39 | 1022.8 |
| 20260906074004 | 78 | 307 | 0.0 | 0.0 | 0.00 | 0.00 | 0.00 | 40 | 1022.9 |
| 20260906073004 | 78 | 307 | 0.0 | 1.0 | 0.00 | 0.00 | 0.00 | 40 | 1022.8 |
| 20260906072503 | 78 | 307 | 0.0 | 1.0 | 0.00 | 0.00 | 0.00 | 40 | 1022.8 |
| 20260906072003 | 78 | 294 | 1.0 | 3.0 | 0.00 | 0.00 | 0.00 | 44 | 1022.8 |
| 20260906071503 | 78 | 270 | 2.0 | 3.0 | 0.00 | 0.00 | 0.00 | 46 | 1022.9 |
| 20260906071003 | 78 | 301 | 0.0 | 2.0 | 0.00 | 0.00 | 0.00 | 44 | 1022.8 |
| 20260906070503 | 78 | 296 | 1.0 | 3.0 | 0.00 | 0.00 | 0.00 | 45 | 1022.8 |
| 20260906070004 | 78 | 269 | 4.0 | 8.0 | 0.00 | 0.00 | 0.00 | 45 | 1022.8 |
| 20260906065007 | 78 | 261 | 3.0 | 7.0 | 0.00 | 0.00 | 0.00 | 45 | 1022.9 |
| 20260906064503 | 78 | 242 | 3.0 | 7.0 | 0.00 | 0.00 | 0.00 | 44 | 1022.9 |
| 20260906064004 | 78 | 232 | 4.0 | 10.0 | 0.00 | 0.00 | 0.00 | 44 | 1022.9 |
| 20260906063504 | 78 | 245 | 3.0 | 6.0 | 0.00 | 0.00 | 0.00 | 43 | 1022.9 |
| 20260906063004 | 78 | 233 | 5.0 | 7.0 | 0.00 | 0.00 | 0.00 | 44 | 1023.0 |
| 20260906062504 | 78 | 227 | 4.0 | 7.0 | 0.00 | 0.00 | 0.00 | 43 | 1022.9 |
| 20260906062004 | 78 | 223 | 2.0 | 6.0 | 0.00 | 0.00 | 0.00 | 41 | 1023.0 |
| 20260906061504 | 78 | 204 | 3.0 | 8.0 | 0.00 | 0.00 | 0.00 | 41 | 1023.1 |
| 20260906060003 | 78 | 264 | 1.0 | 7.0 | 0.00 | 0.00 | 0.00 | 41 | 1023.0 |
| 20260906055504 | 78 | 244 | 2.0 | 8.0 | 0.00 | 0.00 | 0.00 | 42 | 1023.1 |
| 20260906055004 | 78 | 238 | 2.0 | 6.0 | 0.00 | 0.00 | 0.00 | 41 | 1023.1 |
| 20260906054503 | 78 | 237 | 1.0 | 7.0 | 0.00 | 0.00 | 0.00 | 41 | 1023.1 |
| 20260906054004 | 78 | 249 | 0.0 | 2.0 | 0.00 | 0.00 | 0.00 | 41 | 1023.2 |
| 20260906053504 | 78 | 248 | 0.0 | 3.0 | 0.00 | 0.00 | 0.00 | 40 | 1023.4 |
| 20260906053003 | 79 | 223 | 2.0 | 6.0 | 0.00 | 0.00 | 0.00 | 40 | 1023.1 |
| 20260906052505 | 79 | 229 | 5.0 | 9.0 | 0.00 | 0.00 | 0.00 | 39 | 1023.0 |
| 20260906052003 | 78 | 248 | 4.0 | 8.0 | 0.00 | 0.00 | 0.00 | 38 | 1023.0 |
| 20260906051003 | 78 | 228 | 6.0 | 8.0 | 0.00 | 0.00 | 0.00 | 38 | 1023.0 |
| 20260906050503 | 78 | 229 | 3.0 | 6.0 | 0.00 | 0.00 | 0.00 | 38 | 1023.0 |
| 20260906050003 | 78 | 209 | 5.0 | 10.0 | 0.00 | 0.00 | 0.00 | 38 | 1023.1 |
| 20260906045503 | 78 | 207 | 6.0 | 10.0 | 0.00 | 0.00 | 0.00 | 38 | 1023.0 |
| 20260906045006 | 78 | 213 | 5.0 | 9.0 | 0.00 | 0.00 | 0.00 | 38 | 1023.0 |
| 20260906044504 | 78 | 221 | 5.0 | 9.0 | 0.00 | 0.00 | 0.00 | 38 | 1023.0 |
| 20260906044004 | 78 | 250 | 6.0 | 10.0 | 0.00 | 0.00 | 0.00 | 38 | 1023.0 |
| 20260906043504 | 78 | 237 | 4.0 | 10.0 | 0.00 | 0.00 | 0.00 | 38 | 1022.9 |
| 20260906043003 | 78 | 221 | 2.0 | 5.0 | 0.00 | 0.00 | 0.00 | 38 | 1023.0 |
| 20260906042503 | 78 | 232 | 4.0 | 8.0 | 0.00 | 0.00 | 0.00 | 39 | 1022.9 |
| 20260906042003 | 78 | 227 | 2.0 | 8.0 | 0.00 | 0.00 | 0.00 | 39 | 1022.8 |
| 20260906041503 | 78 | 204 | 2.0 | 6.0 | 0.00 | 0.00 | 0.00 | 38 | 1022.8 |
| 20260906040003 | 79 | 240 | 4.0 | 9.0 | 0.00 | 0.00 | 0.00 | 38 | 1022.6 |
| 20260906035503 | 79 | 237 | 4.0 | 12.0 | 0.00 | 0.00 | 0.00 | 38 | 1022.6 |
| 20260906035003 | 79 | 239 | 7.0 | 12.0 | 0.00 | 0.00 | 0.00 | 38 | 1022.6 |
| 20260906034503 | 79 | 230 | 6.0 | 10.0 | 0.00 | 0.00 | 0.00 | 38 | 1022.4 |
| 20260906034003 | 79 | 238 | 4.0 | 12.0 | 0.00 | 0.00 | 0.00 | 38 | 1022.4 |
| 20260906033004 | 79 | 230 | 6.0 | 13.0 | 0.00 | 0.00 | 0.00 | 38 | 1022.2 |
| 20260906032503 | 80 | 218 | 6.0 | 10.0 | 0.00 | 0.00 | 0.00 | 38 | 1022.1 |
| 20260906032003 | 80 | 219 | 9.0 | 15.0 | 0.00 | 0.00 | 0.00 | 38 | 1022.1 |
| 20260906031504 | 80 | 214 | 9.0 | 13.0 | 0.00 | 0.00 | 0.00 | 38 | 1022.1 |
| 20260906031003 | 80 | 218 | 7.0 | 14.0 | 0.00 | 0.00 | 0.00 | 38 | 1022.1 |
| 20260906030503 | 80 | 220 | 9.0 | 16.0 | 0.00 | 0.00 | 0.00 | 38 | 1022.1 |
| 20260906030003 | 80 | 207 | 9.0 | 12.0 | 0.00 | 0.00 | 0.00 | 38 | 1022.1 |
| 20260906025503 | 80 | 236 | 7.0 | 13.0 | 0.00 | 0.00 | 0.00 | 38 | 1022.1 |
| 20260906025003 | 80 | 224 | 7.0 | 14.0 | 0.00 | 0.00 | 0.00 | 38 | 1021.9 |
| 20260906024503 | 80 | 219 | 8.0 | 14.0 | 0.00 | 0.00 | 0.00 | 38 | 1022.0 |
| 20260906024004 | 80 | 231 | 10.0 | 18.0 | 0.00 | 0.00 | 0.00 | 37 | 1021.9 |
| 20260906023504 | 80 | 228 | 10.0 | 17.0 | 0.00 | 0.00 | 0.00 | 37 | 1021.8 |
| 20260906023004 | 81 | 214 | 11.0 | 18.0 | 0.00 | 0.00 | 0.00 | 37 | 1021.9 |
| 20260906022503 | 81 | 220 | 10.0 | 17.0 | 0.00 | 0.00 | 0.00 | 37 | 1021.9 |
| 20260906022004 | 81 | 222 | 8.0 | 13.0 | 0.00 | 0.00 | 0.00 | 37 | 1021.9 |
| 20260906021503 | 81 | 225 | 7.0 | 20.0 | 0.00 | 0.00 | 0.00 | 36 | 1022.0 |
| 20260906021004 | 81 | 216 | 10.0 | 17.0 | 0.00 | 0.00 | 0.00 | 36 | 1022.0 |
| 20260906020503 | 82 | 239 | 7.0 | 14.0 | 0.00 | 0.00 | 0.00 | 35 | 1022.0 |
| 20260906020003 | 82 | 212 | 9.0 | 16.0 | 0.00 | 0.00 | 0.00 | 35 | 1021.9 |
| 20260906015503 | 82 | 216 | 10.0 | 16.0 | 0.00 | 0.00 | 0.00 | 34 | 1021.9 |
| 20260906015004 | 83 | 214 | 8.0 | 15.0 | 0.00 | 0.00 | 0.00 | 34 | 1021.9 |
| 20260906014004 | 83 | 209 | 10.0 | 15.0 | 0.00 | 0.00 | 0.00 | 33 | 1021.8 |
| 20260906013503 | 84 | 209 | 11.0 | 18.0 | 0.00 | 0.00 | 0.00 | 32 | 1021.9 |
| 20260906013004 | 84 | 203 | 8.0 | 16.0 | 0.00 | 0.00 | 0.00 | 32 | 1021.9 |
| 20260906012503 | 84 | 219 | 10.0 | 16.0 | 0.00 | 0.00 | 0.00 | 32 | 1021.8 |
| 20260906012003 | 84 | 195 | 7.0 | 13.0 | 0.00 | 0.00 | 0.00 | 32 | 1021.9 |
| 20260906011503 | 85 | 189 | 10.0 | 15.0 | 0.00 | 0.00 | 0.00 | 31 | 1021.9 |
| 20260906010504 | 85 | 215 | 8.0 | 13.0 | 0.00 | 0.00 | 0.00 | 32 | 1021.9 |
| 20260906005504 | 85 | 221 | 10.0 | 16.0 | 0.00 | 0.00 | 0.00 | 31 | 1022.0 |
| 20260906005003 | 85 | 224 | 12.0 | 16.0 | 0.00 | 0.00 | 0.00 | 32 | 1021.9 |
| 20260906004503 | 85 | 200 | 10.0 | 15.0 | 0.00 | 0.00 | 0.00 | 31 | 1022.0 |
| 20260906004003 | 85 | 202 | 12.0 | 20.0 | 0.00 | 0.00 | 0.00 | 31 | 1021.9 |
| 20260906003504 | 85 | 214 | 11.0 | 16.0 | 0.00 | 0.00 | 0.00 | 31 | 1021.9 |
| 20260906003003 | 85 | 221 | 11.0 | 17.0 | 0.00 | 0.00 | 0.00 | 31 | 1021.9 |
| 20260906002504 | 86 | 197 | 14.0 | 20.0 | 0.00 | 0.00 | 0.00 | 30 | 1021.7 |
| 20260906002004 | 86 | 220 | 9.0 | 14.0 | 0.00 | 0.00 | 0.00 | 31 | 1021.9 |
| 20260906001004 | 87 | 224 | 10.0 | 20.0 | 0.00 | 0.00 | 0.00 | 31 | 1022.0 |
| 20260905234504 | 86 | 205 | 11.0 | 20.0 | 0.00 | 0.00 | 0.00 | 31 | 1022.0 |
| 20260905234004 | 86 | 201 | 14.0 | 20.0 | 0.00 | 0.00 | 0.00 | 30 | 1022.1 |
| 20260905232503 | 86 | 190 | 12.0 | 20.0 | 0.00 | 0.00 | 0.00 | 32 | 1022.3 |
| 20260905232003 | 87 | 202 | 15.0 | 25.0 | 0.00 | 0.00 | 0.00 | 33 | 1022.0 |
| 20260905231503 | 87 | 205 | 11.0 | 20.0 | 0.00 | 0.00 | 0.00 | 32 | 1022.1 |
| 20260905230503 | 88 | 194 | 13.0 | 21.0 | 0.00 | 0.00 | 0.00 | 29 | 1021.9 |
| 20260905225503 | 89 | 203 | 17.0 | 26.0 | 0.00 | 0.00 | 0.00 | 29 | 1022.1 |
| 20260905225006 | 89 | 207 | 12.0 | 22.0 | 0.00 | 0.00 | 0.00 | 29 | 1022.0 |
| 20260905224504 | 90 | 199 | 16.0 | 24.0 | 0.00 | 0.00 | 0.00 | 28 | 1021.9 |
| 20260905224004 | 90 | 195 | 11.0 | 24.0 | 0.00 | 0.00 | 0.00 | 28 | 1022.1 |
| 20260905223504 | 89 | 227 | 13.0 | 24.0 | 0.00 | 0.00 | 0.00 | 29 | 1022.0 |
| 20260905223004 | 89 | 214 | 16.0 | 25.0 | 0.00 | 0.00 | 0.00 | 28 | 1022.0 |
| 20260905222503 | 90 | 205 | 16.0 | 21.0 | 0.00 | 0.00 | 0.00 | 26 | 1022.1 |
| 20260905222004 | 89 | 203 | 12.0 | 20.0 | 0.00 | 0.00 | 0.00 | 27 | 1022.1 |
| 20260905221504 | 88 | 201 | 13.0 | 24.0 | 0.00 | 0.00 | 0.00 | 28 | 1022.3 |
| 20260905221004 | 89 | 194 | 17.0 | 24.0 | 0.00 | 0.00 | 0.00 | 27 | 1022.2 |
| 20260905220003 | 89 | 196 | 14.0 | 21.0 | 0.00 | 0.00 | 0.00 | 28 | 1022.3 |
| 20260905215504 | 90 | 205 | 14.0 | 25.0 | 0.00 | 0.00 | 0.00 | 27 | 1022.4 |
| 20260905214503 | 87 | 194 | 16.0 | 28.0 | 0.00 | 0.00 | 0.00 | 29 | 1022.4 |
| 20260905214004 | 89 | 191 | 17.0 | 26.0 | 0.00 | 0.00 | 0.00 | 28 | 1022.5 |
| 20260905213503 | 90 | 200 | 16.0 | 26.0 | 0.00 | 0.00 | 0.00 | 27 | 1022.5 |
| 20260905212503 | 89 | 204 | 17.0 | 28.0 | 0.00 | 0.00 | 0.00 | 28 | 1022.6 |
| 20260905212003 | 88 | 198 | 16.0 | 26.0 | 0.00 | 0.00 | 0.00 | 28 | 1022.6 |
| 20260905211003 | 89 | 203 | 17.0 | 25.0 | 0.00 | 0.00 | 0.00 | 27 | 1022.5 |
| 20260905210503 | 90 | 200 | 17.0 | 28.0 | 0.00 | 0.00 | 0.00 | 27 | 1022.5 |
| 20260905210003 | 90 | 196 | 16.0 | 24.0 | 0.00 | 0.00 | 0.00 | 27 | 1022.5 |
| 20260905205503 | 89 | 196 | 18.0 | 29.0 | 0.00 | 0.00 | 0.00 | 26 | 1022.5 |
| 20260905205007 | 89 | 200 | 17.0 | 24.0 | 0.00 | 0.00 | 0.00 | 27 | 1022.5 |
| 20260905204004 | 89 | 189 | 18.0 | 26.0 | 0.00 | 0.00 | 0.00 | 27 | 1022.5 |
| 20260905203504 | 89 | 206 | 16.0 | 26.0 | 0.00 | 0.00 | 0.00 | 27 | 1022.6 |
| 20260905203004 | 89 | 201 | 18.0 | 26.0 | 0.00 | 0.00 | 0.00 | 27 | 1022.5 |
| 20260905202503 | 89 | 189 | 18.0 | 26.0 | 0.00 | 0.00 | 0.00 | 27 | 1022.6 |
| 20260905202003 | 89 | 209 | 16.0 | 25.0 | 0.00 | 0.00 | 0.00 | 27 | 1022.7 |
| 20260905201503 | 89 | 189 | 15.0 | 26.0 | 0.00 | 0.00 | 0.00 | 28 | 1022.8 |
| 20260905201003 | 89 | 194 | 13.0 | 23.0 | 0.00 | 0.00 | 0.00 | 28 | 1022.6 |
| 20260905200503 | 88 | 203 | 18.0 | 25.0 | 0.00 | 0.00 | 0.00 | 28 | 1022.8 |
| 20260905195504 | 88 | 206 | 14.0 | 21.0 | 0.00 | 0.00 | 0.00 | 29 | 1023.0 |
| 20260905195004 | 89 | 210 | 16.0 | 24.0 | 0.00 | 0.00 | 0.00 | 29 | 1023.3 |
| 20260905194503 | 88 | 192 | 16.0 | 24.0 | 0.00 | 0.00 | 0.00 | 30 | 1023.2 |
| 20260905194004 | 88 | 195 | 17.0 | 25.0 | 0.00 | 0.00 | 0.00 | 30 | 1023.2 |
| 20260905193004 | 88 | 191 | 17.0 | 29.0 | 0.00 | 0.00 | 0.00 | 30 | 1023.4 |
| 20260905192003 | 88 | 210 | 13.0 | 30.0 | 0.00 | 0.00 | 0.00 | 29 | 1023.5 |
| 20260905191503 | 87 | 189 | 15.0 | 25.0 | 0.00 | 0.00 | 0.00 | 28 | 1023.6 |
| 20260905191004 | 88 | 182 | 14.0 | 23.0 | 0.00 | 0.00 | 0.00 | 27 | 1023.7 |
| 20260905190503 | 87 | 187 | 18.0 | 29.0 | 0.00 | 0.00 | 0.00 | 27 | 1023.6 |
| 20260905190004 | 87 | 198 | 16.0 | 28.0 | 0.00 | 0.00 | 0.00 | 27 | 1023.7 |
| 20260905185504 | 87 | 194 | 16.0 | 25.0 | 0.00 | 0.00 | 0.00 | 28 | 1023.6 |
| 20260905185004 | 87 | 184 | 18.0 | 25.0 | 0.00 | 0.00 | 0.00 | 25 | 1023.7 |
| 20260905184503 | 87 | 186 | 17.0 | 26.0 | 0.00 | 0.00 | 0.00 | 25 | 1023.8 |
| 20260905184004 | 87 | 198 | 14.0 | 24.0 | 0.00 | 0.00 | 0.00 | 26 | 1023.7 |
| 20260905183504 | 87 | 199 | 18.0 | 26.0 | 0.00 | 0.00 | 0.00 | 22 | 1023.6 |
| 20260905183004 | 86 | 182 | 18.0 | 29.0 | 0.00 | 0.00 | 0.00 | 23 | 1023.8 |
| 20260905182504 | 86 | 178 | 18.0 | 28.0 | 0.00 | 0.00 | 0.00 | 23 | 1024.0 |
| 20260905182003 | 87 | 200 | 17.0 | 25.0 | 0.00 | 0.00 | 0.00 | 22 | 1023.9 |
| 20260905181504 | 86 | 188 | 16.0 | 23.0 | 0.00 | 0.00 | 0.00 | 20 | 1024.0 |
| 20260905181003 | 86 | 198 | 16.0 | 23.0 | 0.00 | 0.00 | 0.00 | 22 | 1024.0 |
| 20260905180504 | 86 | 186 | 17.0 | 29.0 | 0.00 | 0.00 | 0.00 | 23 | 1023.9 |
| 20260905180004 | 86 | 179 | 17.0 | 26.0 | 0.00 | 0.00 | 0.00 | 20 | 1023.8 |
| 20260905175003 | 85 | 173 | 20.0 | 29.0 | 0.00 | 0.00 | 0.00 | 21 | 1023.8 |
| 20260905174504 | 86 | 184 | 16.0 | 25.0 | 0.00 | 0.00 | 0.00 | 20 | 1023.8 |